Regional Weather Roundup
Issued by NWS

Home | Current Version | Previous Version | Text Only | Print | Product List | Glossary Off
Versions: 1 2 3 4 5 6 7 8 9 10 11 12 13 14 15 16 17 18 19 20 21 22 23 24 25 26 27 28 29 30 31 32 33 34 35 36 37 38 39 40 41 42 43 44 45 46 47 48 49 50

000
ASUS43 KTOP 230808
RWRKS

WEATHER ROUNDUP FOR KANSAS
NATIONAL WEATHER SERVICE GOODLAND KS
300 AM CDT THU MAR 23 2017

NOTE:  "FAIR" INDICATES FEW OR NO CLOUDS BELOW 12,000 FEET WITH NO
SIGNIFICANT WEATHER AND/OR OBSTRUCTIONS TO VISIBILITY.

KSZ001>006-013>018-027>032-041>047-230900-
NORTHWEST KANSAS

CITY           SKY/WX    TMP DP  RH WIND       PRES   REMARKS
GOODLAND       CLOUDY    44  40  85 S23       29.83F
HAYS             N/A     49  40  71 SE14      29.94F
HILL CITY      MOCLDY    45  38  76 SE9       29.93F
RUSSELL        CLOUDY    50  39  66 SE17G23   29.94F
$$

KSZ061>065-074>080-084>089-230900-
SOUTHWEST KANSAS

CITY           SKY/WX    TMP DP  RH WIND       PRES   REMARKS
DODGE CITY     CLOUDY    55  51  86 S21G30    29.93F FOG
ELKHART          N/A     49  41  74 S12         N/A
GARDEN CITY    PTCLDY    48  45  89 SE13      29.88F
GREAT BEND     CLOUDY    52  46  80 SE18      29.96F
LIBERAL        CLEAR     52  45  76 SE10      29.90F
PRATT          CLOUDY    51  47  86 SE14G23   29.97F
$$

KSZ066>073-081>083-090>101-230900-
SOUTHEAST KANSAS

CITY           SKY/WX    TMP DP  RH WIND       PRES   REMARKS
CHANUTE        CLOUDY    56  40  55 SE13      30.08F
COFFEYVILLE    CLOUDY    58  45  62 SE9       30.08F
HUTCHINSON     CLOUDY    54  48  80 SE9       30.00F
MEDICINE LODGE   N/A     55  46  71 SE10G18   29.96F
NEWTON         CLOUDY    52  47  83 SE12      30.04F
PARSONS        CLOUDY    57  43  59 SE10G17   30.08F
WICHITA INTL   CLOUDY    56  48  74 SE14      30.02S
WICHITA JABRA  CLOUDY    54  48  80 SE13      30.03S
WICHITA MCCONL CLOUDY    55  47  73 S8        30.02F
WINFIELD       CLOUDY    58  46  64 SE10      30.03F
$$

KSZ007>012-019>026-033>040-048>060-102>105-230900-
NORTHEAST KANSAS

CITY           SKY/WX    TMP DP  RH WIND       PRES   REMARKS
CONCORDIA      CLOUDY    51  33  50 SE13      30.01F
EMPORIA        CLOUDY    53  42  66 SE12      30.06F
LAWRENCE       CLOUDY    52  31  44 E12       30.12F
MANHATTAN      CLOUDY    53  34  48 E7        30.05F
MARYSVILLE     CLOUDY    50  32  50 SE12G17   30.05F
OLATHE IND     CLOUDY    50  28  42 E12       30.13F
OLATHE EXE     CLOUDY    49  28  44 E14       30.13F
SALINA         CLOUDY    54  43  66 SE16      30.02S
TOPEKA BILLARD CLOUDY    53  34  48 E12       30.10F
TOPEKA FORBES  CLOUDY    53  33  46 E10       30.09F
$$




USA.gov is the U.S. government's official web portal to all federal, state and local government web resources and services.